User: anonymous   Login
Location: Caltech
(34.1382°N, 118.1253°W)
Time: 19:40:54
(UTC-08:00)
Language:

Meteor 1-11 Rocket - Orbit

View from above orbital plane
View from above orbital plane
View from above satellite
View from above satellite

Ground track
Ground track

The orbit data is extracted from the following two-line orbital elements,

1 05918U 72022B   16042.26915663  .00000071  00000-0  35776-4 0  9997
2 05918  81.2351  81.7378 0057637 269.1874  90.2690 14.05792999248874
Epoch (UTC): 11 February 2016 06:27:35
Eccentricity: 0.0057637
inclination: 81.2351°
perigee height: 832 km
apogee height: 915 km
right ascension of ascending node: 81.7378°
argument of perigee: 269.1874°
revolutions per day: 14.05792999
mean anomaly at epoch: 90.2690°
orbit number at epoch: 24887

The dashed part of the orbit path shows where the satellite is in the earth's shadow,  

DLR